Location: Hamilton
(37.7830°S, 175.2830°E)
Time: 10:08:14
(UTC+13:00)

Cosmos 1242 Rocket - Pass Details

Date: 24 January 2019
Orbit: 449 x 490 km, 81.2° (Epoch: 22 February)

Event Time Altitude Azimuth Distance (km) Brightness Sun altitude
Rises 22:54:20 0° 199° (SSW) 2,604 7.5 -22.2°
Reaches altitude 10° 22:56:36 10° 208° (SSW) 1,714 6.4 -22.4°
Maximum altitude 23:00:01 34° 273° (W) 846 4.0 -22.9°
Enters shadow 23:00:47 30° 300° (WNW) 908 3.9 -23.0°
